Simultaneous Nadir Overpasses (SNOs) Predictions

Prediction of SNOs between METOP-C and LANDSAT-8 Satellite Orbit:

Table of predicted SNOs for the next 14.0 days since TLE Epoch: 5/3/2025
Index Date (METOP-C) Time (METOP-C) Lat,Lon (METOP-C) SZA (METOP-C ) Date (LANDSAT-8) Time (LANDSAT-8) Lat,Lon (LANDSAT-8) SZA (LANDSAT-8 ) Distance(km) Time Diff (sec)
1 05/03/2025 11:55:53 81.03, 38.65 67.19 05/03/2025 11:56:40 81.02, 38.69 67.21 0.77 47
2 05/03/2025 12:46:31 -81.07,-152.91 112.68 05/03/2025 12:46:05 -81.07,-153.04 112.71 2.16 26
3 05/06/2025 07:30:16 81.05, 105.63 66.47 05/06/2025 07:30:52 81.05, 105.49 66.47 2.49 36
4 05/06/2025 08:20:56 -81.06, -86.67 113.49 05/06/2025 08:20:18 -81.07, -86.58 113.50 1.81 38
5 05/09/2025 03:04:41 81.05, 172.14 65.73 05/09/2025 03:05:05 81.05, 172.02 65.73 2.15 24
6 05/09/2025 03:55:21 -81.07, -20.17 114.24 05/09/2025 03:54:31 -81.08, -20.03 114.24 2.63 50
7 05/11/2025 22:39:07 81.04,-121.83 64.96 05/11/2025 22:39:18 81.04,-121.73 64.98 1.80 11
8 05/11/2025 23:29:46 -81.07, 46.24 114.96 05/11/2025 23:28:44 -81.06, 46.25 114.99 0.31 62
9 05/14/2025 17:22:52 -81.01, 136.54 115.82 05/14/2025 17:24:04 -81.01, 136.63 115.78 1.73 72
10 05/14/2025 18:13:31 81.03, -55.53 64.26 05/14/2025 18:13:29 81.03, -55.38 64.28 2.58 2



Historial Predications of SNOs between METOP-C and LANDSAT-8
